Dewpoint
-11 -11 -11 -11 -11 -11 -11 -11 -11 -10 -10 -10 -10 -11 -11 -11 -11 -11 -11 -11 -11 -11 -11 -11 -11 -12 -12 -12 -12 -13 -13 -13 -13 -13 -13 -13 -13 -14 -14 -14 -14 -14
-12 -12 -12 -11 -11 -12 -12 -12 -11 -11 -11 -11 -11 -11 -11 -11 -11 -11 -11 -11 -11 -11 -11 -11 -12 -12 -12 -12 -13 -13 -13 -13 -13 -13 -14 -14 -14 -14 -14 -14 -14 -14
-12 -12 -12 -12 -12 -12 -12 -12 -12 -11 -12 -12 -11 -11 -11 -11 -11 -11 -11 -11 -11 -11 -11 -12 -12 -12 -12 -13 -13 -13 -13 -14 -13 -14 -14 -14 -14 -14 -14 -14 -14 -14
-12 -12 -12 -12 -12 -12 -12 -12 -11 -11 -12 -11 -12 -12 -11 -11 -11 -11 -11 -11 -11 -11 -11 -12 -12 -12 -12 -13 -13 -13 -13 -14 -14 -14 -14 -14 -14 -14 -14 -14 -14 -14
-13 -12 -12 -12 -11 -12 -11 -11 -11 -11 -11 -11 -11 -11 -11 -11 -11 -11 -11 -11 -11 -11 -11 -12 -12 -12 -12 -12 -13 -13 -13 -14 -14 -14 -14 -14 -14 -15 -14 -15 -15 -15
-14 -13 -13 -13 -12 -12 -11 -11 -11 -11 -11 -11 -11 -11 -11 -11 -11 -11 -11 -11 -11 -11 -11 -11 -11 -12 -12 -12 -13 -13 -13 -14 -14 -14 -14 -14 -14 -15 -15 -15 -15 -15
-14 -14 -14 -14 -14 -13 -12 -12 -12 -12 -12 -12 -12 -12 -11 -11 -11 -10 -10 -11 -11 -11 -11 -11 -11 -11 -11 -12 -12 -12 -13 -13 -14 -14 -14 -14 -15 -15 -15 -15 -15 -15
-14 -14 -14 -14 -14 -14 -14 -14 -14 -13 -13 -13 -12 -12 -12 -11 -11 -10 -10 -10 -10 -11 -11 -11 -11 -11 -11 -12 -12 -12 -13 -13 -14 -14 -14 -14 -15 -15 -15 -16 -16 -16
-14 -14 -14 -14 -13 -13 -13 -14 -14 -14 -13 -13 -13 -13 -12 -12 -11 -11 -10 -10 -10 -10 -10 -11 -11 -11 -11 -11 -12 -12 -13 -13 -13 -14 -14 -14 -15 -15 -15 -15 -16 -16
-13 -14 -14 -14 -12 -12 -12 -12 -12 -13 -13 -13 -12 -13 -13 -12 -11 -11 -10 -10 -10 -10 -10 -10 -10 -11 -11 -11 -12 -12 -13 -13 -13 -14 -14 -14 -14 -15 -15 -15 -16 -16
-13 -14 -14 -14 -13 -12 -12 -12 -12 -12 -12 -12 -12 -12 -13 -12 -11 -10 -10 -10 -10 -10 -10 -10 -10 -11 -11 -11 -11 -12 -12 -13 -13 -14 -14 -14 -15 -15 -15 -15 -15 -15
-13 -13 -13 -13 -13 -13 -13 -13 -13 -13 -12 -12 -12 -13 -13 -12 -11 -10 -9 -9 -10 -10 -10 -10 -10 -10 -11 -11 -11 -12 -12 -13 -13 -14 -14 -14 -15 -15 -15 -15 -15 -15
-12 -12 -12 -13 -13 -12 -13 -13 -13 -13 -12 -12 -13 -13 -13 -12 -10 -9 -9 -9 -9 -10 -10 -10 -10 -10 -11 -11 -11 -12 -12 -13 -13 -14 -14 -14 -15 -15 -15 -15 -16 -16
-12 -12 -12 -12 -12 -12 -13 -13 -13 -13 -13 -13 -13 -13 -12 -11 -9 -9 -9 -9 -9 -10 -10 -10 -10 -10 -10 -10 -11 -11 -11 -12 -12 -13 -14 -14 -14 -15 -15 -15 -15 -16
-12 -12 -12 -13 -13 -13 -13 -13 -13 -14 -14 -14 -13 -12 -11 -10 -9 -9 -9 -9 -9 -10 -10 -10 -10 -10 -10 -10 -10 -10 -11 -11 -12 -12 -13 -13 -14 -14 -14 -15 -15 -15
-11 -11 -11 -12 -12 -12 -12 -12 -12 -12 -12 -13 -13 -12 -11 -10 -9 -9 -9 -9 -10 -10 -10 -10 -10 -10 -10 -10 -10 -10 -10 -11 -11 -12 -12 -13 -13 -14 -14 -14 -15 -15
-9 -9 -9 -9 -10 -10 -10 -10 -10 -10 -10 -10 -11 -11 -11 -11 -10 -10 -10 -10 -10 -10 -10 -10 -10 -10 -10 -10 -10 -10 -10 -11 -11 -11 -12 -12 -13 -13 -14 -14 -14 -15
-9 -9 -9 -9 -9 -10 -9 -10 -10 -9 -10 -10 -10 -10 -10 -10 -10 -10 -10 -10 -10 -10 -10 -10 -10 -10 -10 -10 -10 -10 -11 -11 -11 -11 -12 -12 -12 -13 -13 -14 -14 -14
-10 -10 -10 -10 -10 -10 -10 -10 -10 -10 -10 -10 -10 -10 -10 -10 -10 -10 -10 -10 -10 -10 -10 -10 -10 -10 -10 -10 -10 -11 -11 -11 -11 -11 -12 -12 -12 -13 -13 -13 -14 -14
-12 -12 -12 -12 -12 -11 -11 -11 -11 -11 -11 -11 -11 -11 -10 -10 -10 -10 -10 -10 -10 -10 -10 -10 -10 -10 -10 -11 -11 -11 -11 -12 -12 -12 -12 -12 -12 -12 -13 -13 -13 -14
-13 -13 -13 -13 -13 -13 -12 -12 -12 -12 -11 -11 -11 -11 -11 -11 -11 -12 -12 -12 -12 -12 -11 -11 -11 -11 -11 -11 -11 -12 -12 -12 -12 -12 -12 -12 -12 -12 -13 -13 -13 -13
-13 -13 -13 -13 -13 -13 -13 -13 -13 -13 -13 -12 -12 -12 -12 -12 -13 -13 -13 -13 -13 -13 -13 -13 -12 -12 -12 -12 -12 -12 -13 -13 -13 -12 -12 -12 -12 -13 -13 -13 -13 -13
-14 -14 -14 -13 -14 -14 -13 -14 -14 -13 -13 -13 -13 -13 -13 -13 -13 -13 -13 -14 -14 -14 -14 -14 -13 -13 -13 -13 -13 -13 -13 -13 -13 -13 -13 -13 -13 -13 -13 -13 -13 -13
-14 -14 -14 -14 -14 -14 -14 -14 -14 -14 -14 -14 -14 -14 -14 -14 -14 -14 -14 -14 -14 -14 -14 -14 -14 -14 -14 -14 -14 -14 -14 -14 -14 -14 -13 -13 -13 -13 -13 -13 -14 -14
-15 -15 -15 -14 -14 -14 -14 -14 -14 -15 -14 -14 -14 -14 -14 -14 -14 -15 -15 -15 -15 -15 -15 -15 -15 -15 -15 -15 -15 -15 -15 -15 -14 -14 -14 -14 -14 -14 -14 -14 -14 -14
-15 -15 -15 -15 -15 -15 -15 -15 -15 -15 -15 -15 -15 -15 -15 -15 -15 -15 -16 -16 -16 -16 -16 -16 -16 -16 -15 -15 -15 -15 -15 -15 -15 -15 -15 -15 -15 -15 -15 -16 -15 -15
Wind_Speed
38 39 41 42 44 44 45 46 48 49 51 52 53 53 53 53 53 53 54 54 54 55 55 55 55 56 56 56 57 57 57 58 58 58 58 58 58 57 57 57 56 56
36 37 39 41 42 42 43 44 45 47 49 49 50 51 52 53 53 53 54 54 54 54 54 54 55 55 56 56 56 57 58 58 59 59 59 59 59 59 59 58 58 58
35 36 38 39 40 40 41 42 44 46 47 47 49 50 50 52 52 53 54 54 54 54 54 54 54 55 55 56 56 57 58 58 59 59 59 59 59 59 59 59 59 59
32 34 36 37 38 39 40 41 43 44 44 45 46 46 48 50 51 53 53 54 54 55 54 54 55 54 55 55 56 57 58 58 58 58 58 59 59 59 59 58 59 59
27 30 32 34 35 36 38 40 41 41 41 42 42 43 46 47 49 51 53 54 54 54 55 55 55 55 54 55 55 57 58 58 58 58 58 59 59 59 59 58 59 59
24 26 28 30 31 33 35 37 37 37 38 39 39 41 43 44 47 49 51 53 53 54 54 54 55 55 55 55 55 57 57 58 58 57 58 59 59 59 59 58 59 59
24 25 27 28 29 30 32 32 32 33 33 34 36 38 40 42 45 47 49 51 52 53 54 54 54 54 54 55 55 56 57 57 57 57 58 59 58 58 58 58 59 59
26 27 28 30 31 31 31 30 30 30 30 31 34 35 37 40 43 44 46 48 50 52 53 53 53 54 54 54 55 56 56 56 57 57 58 58 58 58 58 58 58 58
27 28 29 31 33 33 32 31 31 30 30 31 33 34 36 39 41 42 44 46 48 50 51 52 52 52 53 53 54 55 56 56 56 56 57 57 58 58 58 57 58 58
28 28 29 30 31 31 32 31 31 31 31 32 34 35 36 38 39 41 43 45 47 48 49 50 51 51 52 53 53 54 54 55 55 56 56 57 57 57 57 57 57 57
28 27 27 27 27 27 28 28 29 30 31 32 34 36 37 37 37 38 40 43 45 46 47 48 48 49 50 51 52 52 53 53 54 55 55 56 56 56 56 56 57 57
30 30 29 29 29 29 30 30 31 31 32 33 34 36 37 37 36 36 37 39 41 42 44 45 45 46 47 48 49 50 51 52 53 54 55 55 56 56 56 56 56 57
33 33 33 33 33 33 33 32 32 32 32 33 34 35 35 34 33 33 33 35 36 38 40 41 42 43 44 45 47 48 49 50 51 52 53 54 55 56 56 56 56 56
31 31 31 32 32 32 31 31 31 31 32 33 33 32 31 30 29 29 29 31 32 34 36 37 39 40 41 43 44 45 47 48 50 51 52 53 54 55 55 56 56 56
27 27 27 27 28 28 28 29 29 30 30 30 30 28 28 27 27 26 27 28 30 31 33 34 36 38 39 40 42 43 45 47 48 49 51 52 53 53 54 55 55 55
25 25 25 25 25 26 26 27 27 27 27 27 27 27 26 26 26 25 25 26 27 28 30 32 34 35 36 38 39 41 43 45 46 48 49 50 51 52 53 53 53 54
26 26 26 26 26 26 26 26 26 26 27 27 27 27 26 26 26 25 25 25 25 26 27 29 31 32 34 35 37 39 41 42 44 45 47 48 49 50 51 51 52 52
26 26 26 26 26 26 25 25 25 25 25 25 25 25 25 25 25 25 25 25 26 27 27 28 29 30 31 32 33 35 37 39 40 42 44 46 47 48 49 49 50 50
26 26 26 26 25 25 25 24 23 23 23 22 22 22 22 22 22 23 23 24 25 26 27 27 27 27 28 28 30 31 33 35 37 38 40 42 44 45 46 47 48 48
27 27 26 26 25 25 25 24 24 23 23 22 22 22 22 21 22 22 22 22 23 24 25 26 26 26 26 26 27 28 28 30 33 35 37 38 40 42 43 45 46 46
27 27 27 27 26 26 26 25 25 25 24 23 23 23 22 22 22 22 22 22 22 23 24 25 25 25 25 25 25 25 25 25 28 32 35 36 36 37 39 41 42 43
28 28 28 27 27 27 26 25 25 25 24 23 23 22 22 21 21 21 21 21 21 22 23 24 24 24 24 24 24 23 22 22 25 30 34 35 36 36 37 37 38 39
28 29 28 28 27 26 26 25 24 24 23 22 22 22 21 20 20 20 20 21 20 21 21 22 23 22 22 22 22 20 19 20 23 28 32 34 35 35 36 36 36 34
28 28 27 27 26 25 24 24 23 22 21 20 20 20 20 19 19 19 19 19 19 19 20 20 20 20 20 20 20 17 15 17 21 25 29 31 31 31 32 34 34 32
26 25 25 24 24 23 22 22 21 20 19 19 19 19 19 18 18 18 17 17 17 17 17 17 17 16 15 16 16 15 13 14 18 22 24 25 25 25 25 28 30 31
23 23 22 22 22 22 21 20 20 19 18 18 17 17 18 17 17 16 16 15 15 14 13 13 13 12 11 11 12 12 13 14 15 18 19 19 20 19 20 22 24 27
Wind_Direction
268 267 267 267 267 268 268 268 267 267 267 267 268 270 271 272 272 270 269 269 268 267 267 265 264 263 261 260 258 256 256 256 255 255 254 253 253 252 251 251 251 252
271 271 270 270 269 270 270 270 270 269 269 270 270 271 272 272 271 270 270 269 268 268 267 266 265 263 262 260 258 257 256 256 255 254 254 254 253 252 252 252 252 252
275 274 273 273 273 274 275 274 273 272 272 272 272 272 272 272 272 271 270 270 269 269 268 266 266 264 263 261 259 258 257 256 256 255 254 255 254 253 253 253 252 252
279 279 278 278 278 278 278 276 274 274 274 274 274 275 275 273 272 271 271 270 270 269 269 268 267 265 264 262 260 259 258 257 257 255 254 255 254 253 254 253 252 252
286 285 283 282 281 280 279 277 276 276 276 277 278 277 276 275 273 272 271 270 270 270 269 268 267 266 265 263 261 260 259 257 256 254 253 254 254 253 254 253 252 252
292 290 288 286 284 282 280 279 279 279 279 280 280 280 278 276 275 273 271 270 270 269 269 268 267 266 265 263 261 260 259 257 256 254 253 254 254 253 253 252 252 252
295 295 294 291 288 285 282 281 282 281 281 283 283 282 281 279 277 275 273 272 270 269 268 267 267 266 265 263 261 261 259 258 256 253 252 253 253 252 252 251 251 252
294 295 294 292 288 285 283 282 281 281 283 284 285 285 285 283 281 279 276 273 271 270 269 268 267 266 265 263 261 261 259 258 256 253 253 253 251 251 251 251 251 251
289 289 288 287 286 283 282 282 281 282 283 284 286 287 287 285 283 282 279 276 273 271 269 268 266 265 264 262 261 260 259 258 257 255 254 253 252 252 252 250 250 251
290 286 283 281 282 282 282 284 284 284 285 285 286 286 285 285 284 283 280 277 274 272 270 268 267 266 264 262 262 261 260 259 258 256 255 254 254 253 252 250 250 251
291 287 284 280 280 280 280 282 284 285 284 284 283 283 283 282 282 282 280 278 275 274 272 271 269 267 265 264 263 262 260 259 258 256 256 256 255 254 253 251 250 251
289 287 286 284 282 281 280 280 280 280 280 280 280 282 281 281 280 280 279 278 277 276 275 273 272 270 268 267 265 263 261 259 258 256 255 255 255 254 252 250 250 250
291 288 287 286 285 284 283 281 279 278 277 278 280 282 281 281 280 280 279 279 278 277 275 274 273 271 269 268 266 263 261 260 258 256 255 254 253 252 251 250 249 249
295 293 291 289 288 287 285 283 281 280 280 281 282 282 281 281 281 280 280 279 278 277 276 274 272 271 269 268 266 264 262 260 258 256 254 253 252 251 250 249 249 248
301 299 298 296 295 293 292 290 288 287 286 285 284 283 282 281 280 279 278 277 276 275 274 273 271 270 269 268 267 265 263 261 259 257 255 253 252 251 250 249 248 248
305 303 302 301 299 297 296 294 293 292 290 288 286 283 282 280 279 278 277 276 275 273 272 271 270 270 269 269 268 266 264 262 260 259 257 255 253 251 250 249 249 249
306 304 301 300 298 296 295 293 292 291 289 288 286 284 282 279 277 275 274 273 272 271 270 269 269 270 270 269 268 267 265 263 261 260 258 256 254 252 251 251 250 250
306 305 302 301 300 298 296 295 293 292 290 289 288 286 284 281 278 276 273 272 270 269 269 268 269 269 270 270 269 268 267 265 263 262 260 257 256 254 253 252 250 249
308 306 304 304 302 301 299 298 297 296 294 293 291 289 287 285 283 280 278 275 273 272 271 270 270 271 272 272 272 271 270 268 266 264 261 259 258 256 255 253 251 250
309 308 307 305 304 302 301 300 299 297 296 295 293 291 290 288 286 284 281 279 276 274 273 272 272 273 274 275 275 275 273 270 269 269 266 263 261 259 257 255 253 251
313 311 310 308 307 304 302 301 299 298 297 296 294 293 292 290 288 286 283 281 278 276 274 273 272 273 273 273 274 275 273 266 264 266 267 266 264 262 259 257 255 254
316 314 313 312 310 308 306 304 301 300 299 297 294 293 292 291 289 288 286 284 282 280 277 275 273 272 272 271 271 273 272 263 256 257 259 262 263 261 260 259 257 255
318 316 314 313 312 310 308 306 305 303 301 298 295 294 293 291 290 289 288 287 286 284 281 279 276 273 271 269 269 270 271 265 257 254 256 261 262 261 259 258 257 256
320 317 316 315 313 312 311 309 308 306 304 301 298 297 296 295 293 292 291 290 290 288 286 283 281 278 274 269 266 263 266 267 263 259 261 265 266 263 258 255 254 253
321 319 317 315 314 314 313 311 310 309 306 303 300 299 298 297 296 295 294 293 292 291 291 289 287 285 279 272 265 256 250 259 269 270 269 268 268 265 259 253 250 249
322 319 318 317 316 315 315 314 312 310 307 305 302 300 300 300 299 298 297 297 297 295 294 293 292 289 283 277 273 260 242 244 266 280 281 276 272 270 265 258 253 250
Height
1454 1454 1454 1453 1453 1453 1453 1453 1452 1452 1452 1452 1451 1451 1451 1451 1452 1453 1453 1453 1454 1454 1455 1456 1457 1458 1458 1459 1460 1461 1461 1462 1462 1464 1466 1466 1467 1469 1469 1470 1471 1472
1451 1451 1450 1450 1449 1449 1449 1448 1448 1448 1448 1447 1447 1446 1447 1447 1447 1447 1447 1448 1448 1448 1449 1450 1451 1452 1453 1453 1454 1455 1455 1455 1456 1458 1459 1460 1461 1462 1463 1464 1465 1466
1448 1447 1447 1446 1445 1445 1445 1445 1444 1444 1444 1443 1443 1443 1442 1442 1442 1442 1442 1442 1442 1442 1443 1444 1445 1446 1447 1447 1448 1448 1448 1449 1449 1451 1453 1453 1455 1456 1457 1459 1460 1460
1445 1444 1443 1443 1442 1442 1441 1441 1440 1440 1439 1438 1438 1438 1438 1438 1437 1436 1436 1436 1436 1436 1437 1438 1439 1440 1441 1442 1443 1442 1442 1443 1444 1446 1447 1446 1448 1449 1451 1453 1454 1454
1442 1441 1440 1439 1438 1438 1437 1436 1435 1435 1435 1434 1434 1434 1434 1433 1433 1431 1431 1430 1430 1430 1431 1432 1432 1433 1435 1436 1436 1436 1436 1436 1438 1440 1440 1439 1441 1442 1444 1446 1447 1448
1439 1438 1437 1436 1435 1434 1433 1432 1431 1431 1430 1430 1430 1429 1429 1429 1428 1427 1426 1425 1425 1425 1425 1426 1426 1427 1428 1429 1429 1429 1429 1430 1431 1433 1433 1433 1434 1436 1437 1439 1440 1441
1436 1435 1434 1432 1431 1430 1429 1428 1427 1427 1426 1426 1425 1424 1424 1424 1422 1422 1421 1420 1419 1419 1419 1420 1420 1421 1422 1423 1423 1423 1423 1424 1425 1427 1427 1427 1429 1430 1431 1432 1433 1434
1432 1431 1430 1429 1428 1426 1425 1424 1423 1423 1422 1422 1421 1420 1420 1419 1417 1417 1416 1415 1414 1413 1413 1414 1414 1415 1416 1417 1417 1417 1418 1418 1419 1420 1421 1421 1423 1423 1424 1426 1427 1428
1428 1427 1426 1424 1423 1422 1421 1420 1419 1419 1418 1417 1416 1415 1415 1414 1412 1412 1411 1410 1409 1408 1408 1408 1408 1409 1410 1410 1410 1411 1412 1412 1413 1414 1415 1415 1416 1416 1418 1420 1421 1421
1423 1422 1421 1419 1418 1417 1416 1416 1415 1415 1414 1413 1411 1410 1409 1408 1407 1407 1406 1405 1404 1403 1402 1402 1402 1403 1404 1404 1404 1405 1406 1407 1408 1408 1409 1409 1410 1411 1413 1414 1415 1415
1420 1418 1417 1415 1413 1412 1411 1411 1410 1410 1409 1408 1407 1405 1404 1403 1402 1401 1400 1399 1398 1398 1397 1397 1397 1398 1398 1398 1398 1399 1400 1401 1402 1403 1403 1404 1405 1406 1407 1408 1409 1409
1416 1414 1412 1411 1409 1408 1407 1406 1405 1404 1403 1402 1401 1400 1398 1397 1396 1396 1395 1394 1393 1393 1393 1392 1392 1393 1392 1392 1393 1394 1395 1395 1396 1397 1398 1399 1400 1400 1402 1403 1403 1404
1411 1409 1408 1406 1405 1403 1402 1401 1400 1399 1398 1397 1396 1394 1393 1392 1391 1390 1390 1389 1389 1389 1388 1388 1388 1388 1388 1388 1389 1389 1390 1390 1391 1392 1392 1393 1394 1395 1396 1397 1398 1399
1406 1404 1403 1401 1400 1398 1397 1396 1395 1394 1392 1391 1390 1389 1388 1387 1386 1385 1385 1384 1384 1384 1384 1384 1384 1383 1383 1384 1384 1385 1385 1385 1386 1387 1387 1388 1389 1390 1391 1392 1393 1394
1402 1400 1399 1397 1396 1394 1393 1391 1390 1389 1387 1386 1385 1384 1383 1382 1381 1381 1380 1380 1380 1380 1380 1380 1379 1379 1379 1380 1380 1380 1381 1381 1381 1382 1383 1383 1384 1385 1386 1386 1388 1389
1399 1397 1395 1394 1392 1391 1389 1388 1386 1385 1383 1382 1381 1380 1379 1378 1377 1377 1376 1376 1376 1376 1376 1376 1375 1375 1376 1376 1376 1376 1376 1377 1377 1377 1378 1378 1379 1380 1380 1381 1382 1384
1396 1394 1392 1391 1389 1387 1386 1384 1383 1381 1380 1379 1377 1376 1375 1374 1374 1373 1372 1372 1372 1372 1371 1371 1371 1372 1372 1372 1372 1372 1372 1373 1373 1373 1373 1374 1374 1375 1375 1376 1378 1379
1393 1391 1389 1387 1386 1384 1382 1381 1380 1378 1377 1375 1374 1373 1372 1371 1370 1369 1369 1368 1368 1368 1367 1367 1368 1368 1368 1368 1368 1368 1368 1368 1369 1369 1369 1369 1369 1370 1371 1372 1373 1374
1390 1388 1386 1384 1383 1381 1379 1378 1376 1375 1374 1372 1371 1370 1369 1368 1367 1366 1365 1365 1364 1364 1363 1363 1363 1363 1364 1364 1364 1364 1364 1364 1364 1364 1364 1364 1365 1366 1367 1368 1369 1370
1387 1385 1383 1381 1380 1378 1376 1375 1373 1372 1370 1369 1368 1367 1365 1365 1364 1363 1362 1362 1361 1360 1360 1359 1359 1359 1360 1360 1360 1360 1361 1360 1359 1359 1359 1360 1361 1362 1362 1363 1364 1365
1384 1382 1380 1378 1377 1375 1373 1372 1370 1368 1367 1366 1365 1364 1362 1361 1361 1360 1359 1358 1358 1357 1356 1356 1356 1356 1356 1356 1356 1357 1357 1358 1357 1355 1355 1355 1356 1357 1358 1359 1360 1361
1381 1379 1377 1375 1373 1371 1370 1368 1367 1365 1364 1363 1362 1361 1360 1359 1358 1357 1356 1355 1355 1354 1353 1353 1353 1353 1352 1352 1352 1353 1354 1355 1355 1353 1352 1352 1352 1353 1354 1355 1356 1357
1379 1376 1374 1372 1370 1368 1367 1365 1364 1362 1361 1360 1359 1358 1357 1356 1355 1354 1353 1352 1352 1351 1350 1349 1349 1349 1349 1349 1349 1350 1350 1351 1351 1350 1350 1349 1349 1350 1350 1351 1352 1353
1376 1374 1371 1369 1367 1366 1364 1362 1361 1360 1358 1357 1356 1355 1354 1353 1352 1351 1350 1349 1349 1348 1347 1346 1346 1346 1346 1346 1346 1347 1348 1348 1347 1347 1347 1346 1346 1346 1347 1348 1349 1350
1374 1372 1369 1367 1365 1364 1362 1360 1359 1357 1356 1355 1353 1352 1351 1350 1349 1348 1347 1347 1346 1345 1344 1344 1343 1343 1343 1343 1343 1343 1344 1345 1345 1344 1344 1343 1343 1343 1343 1344 1345 1346
1372 1369 1367 1366 1363 1362 1360 1358 1357 1355 1354 1352 1351 1350 1349 1348 1347 1346 1345 1345 1344 1343 1343 1342 1342 1342 1342 1341 1341 1341 1341 1342 1342 1341 1341 1340 1340 1341 1341 1341 1342 1343